Previsão horária em Alleppey

Hoje, 16 Janeiro, Sábado

Tempo Temperatura Precipitação Vento Pressão Humidade
00:00 +26°C° 0.1 mm 1 m/s 756 mmHg 93%
01:00 +26°C° 0.1 mm 1 m/s 755 mmHg 94%
02:00 +25°C° 0.1 mm 1 m/s 755 mmHg 94%
03:00 +25°C° 0.1 mm 2 m/s 755 mmHg 94%
04:00 +25°C° 0.1 mm 2 m/s 755 mmHg 93%
05:00 +25°C° 0 mm 2 m/s 756 mmHg 92%
06:00 +25°C° 0.2 mm 2 m/s 756 mmHg 89%
07:00 +26°C° 0.2 mm 2 m/s 756 mmHg 87%
08:00 +27°C° 0.2 mm 3 m/s 757 mmHg 84%
09:00 +30°C° 0 mm 2 m/s 757 mmHg 73%
10:00 +32°C° 0 mm 2 m/s 757 mmHg 62%
11:00 +35°C° 0 mm 1 m/s 757 mmHg 50%
12:00 +35°C° 0 mm 1 m/s 756 mmHg 49%
13:00 +36°C° 0 mm 2 m/s 755 mmHg 49%
14:00 +36°C° 0 mm 2 m/s 754 mmHg 48%
15:00 +34°C° 0.1 mm 2 m/s 754 mmHg 58%
16:00 +31°C° 0.1 mm 3 m/s 755 mmHg 68%
17:00 +29°C° 0.1 mm 3 m/s 755 mmHg 78%
18:00 +29°C° 0.4 mm 2 m/s 755 mmHg 80%
19:00 +28°C° 0.4 mm 2 m/s 756 mmHg 83%
20:00 +27°C° 0.4 mm 1 m/s 756 mmHg 85%
21:00 +27°C° 0.3 mm 1 m/s 756 mmHg 87%
22:00 +27°C° 0.3 mm 1 m/s 757 mmHg 89%
23:00 +26°C° 0.3 mm 1 m/s 757 mmHg 91%

Amanhã, 17 Janeiro, Domingo

Tempo Temperatura Precipitação Vento Pressão Humidade
00:00 +26°C° 0.6 mm 1 m/s 756 mmHg 91%
01:00 +26°C° 0.6 mm 1 m/s 756 mmHg 92%
02:00 +26°C° 0.6 mm 2 m/s 755 mmHg 93%
03:00 +25°C° 0.3 mm 2 m/s 755 mmHg 93%
04:00 +25°C° 0.3 mm 2 m/s 755 mmHg 93%
05:00 +25°C° 0.3 mm 2 m/s 755 mmHg 93%
06:00 +26°C° 0.1 mm 2 m/s 756 mmHg 90%
07:00 +27°C° 0.1 mm 2 m/s 757 mmHg 87%
08:00 +28°C° 0.1 mm 2 m/s 757 mmHg 84%
09:00 +30°C° 0 mm 2 m/s 757 mmHg 73%
10:00 +32°C° 0 mm 1 m/s 757 mmHg 63%
11:00 +35°C° 0 mm 1 m/s 757 mmHg 53%
12:00 +35°C° 0 mm 1 m/s 756 mmHg 53%
13:00 +36°C° 0 mm 2 m/s 755 mmHg 52%
14:00 +36°C° 0 mm 3 m/s 755 mmHg 51%
15:00 +34°C° 0 mm 3 m/s 755 mmHg 59%
16:00 +31°C° 0 mm 3 m/s 755 mmHg 67%
17:00 +30°C° 0 mm 2 m/s 755 mmHg 75%
18:00 +29°C° 0.3 mm 2 m/s 756 mmHg 79%
19:00 +28°C° 0.3 mm 2 m/s 756 mmHg 83%
20:00 +27°C° 0.3 mm 2 m/s 757 mmHg 87%
21:00 +27°C° 0.5 mm 2 m/s 757 mmHg 89%
22:00 +26°C° 0.5 mm 2 m/s 757 mmHg 90%
23:00 +26°C° 0.5 mm 2 m/s 758 mmHg 91%

Depois de amanhã, 18 Janeiro, Segunda-feira

Tempo Temperatura Precipitação Vento Pressão Humidade
00:00 +26°C° 0 mm 2 m/s 757 mmHg 92%
01:00 +25°C° 0 mm 1 m/s 757 mmHg 93%
02:00 +25°C° 0 mm 1 m/s 756 mmHg 94%
03:00 +25°C° 0 mm 2 m/s 756 mmHg 93%
04:00 +24°C° 0 mm 2 m/s 756 mmHg 91%
05:00 +24°C° 0 mm 3 m/s 756 mmHg 89%
06:00 +25°C° 0 mm 3 m/s 757 mmHg 86%
07:00 +25°C° 0 mm 3 m/s 757 mmHg 82%
08:00 +26°C° 0 mm 3 m/s 758 mmHg 79%
09:00 +29°C° 0 mm 2 m/s 758 mmHg 69%
10:00 +32°C° 0 mm 1 m/s 758 mmHg 59%
11:00 +32°C° 0 mm 0 m/s 758 mmHg 50%
12:00 +34°C° 0 mm 1 m/s 757 mmHg 50%
13:00 +35°C° 0 mm 2 m/s 756 mmHg 51%
14:00 +34°C° 0 mm 3 m/s 755 mmHg 51%
15:00 +33°C° 0 mm 3 m/s 755 mmHg 59%
16:00 +31°C° 0 mm 3 m/s 755 mmHg 66%
17:00 +30°C° 0 mm 3 m/s 755 mmHg 73%
18:00 +29°C° 0 mm 3 m/s 756 mmHg 77%
19:00 +28°C° 0 mm 2 m/s 756 mmHg 81%
20:00 +27°C° 0 mm 1 m/s 757 mmHg 85%
21:00 +26°C° 0 mm 1 m/s 757 mmHg 84%
22:00 +25°C° 0 mm 2 m/s 758 mmHg 83%
23:00 +24°C° 0 mm 2 m/s 758 mmHg 83%

19 Janeiro, Terça-feira

Tempo Temperatura Precipitação Vento Pressão Humidade
00:00 +24°C° 0 mm 2 m/s 757 mmHg 83%
01:00 +24°C° 0 mm 3 m/s 757 mmHg 83%
02:00 +22°C° 0 mm 3 m/s 756 mmHg 83%
03:00 +22°C° 0 mm 3 m/s 756 mmHg 84%
04:00 +22°C° 0 mm 3 m/s 756 mmHg 85%
05:00 +22°C° 0 mm 3 m/s 757 mmHg 86%
06:00 +24°C° 0 mm 3 m/s 757 mmHg 81%
07:00 +25°C° 0 mm 2 m/s 758 mmHg 77%
08:00 +26°C° 0 mm 2 m/s 758 mmHg 73%
09:00 +28°C° 0 mm 2 m/s 758 mmHg 65%
10:00 +31°C° 0 mm 1 m/s 758 mmHg 58%
11:00 +33°C° 0 mm 1 m/s 758 mmHg 50%
12:00 +33°C° 0 mm 1 m/s 757 mmHg 51%
13:00 +34°C° 0 mm 2 m/s 756 mmHg 51%
14:00 +34°C° 0 mm 3 m/s 755 mmHg 51%
15:00 +31°C° 0 mm 3 m/s 755 mmHg 58%
16:00 +30°C° 0 mm 3 m/s 755 mmHg 64%
17:00 +29°C° 0 mm 3 m/s 755 mmHg 71%
18:00 +28°C° 0 mm 3 m/s 756 mmHg 75%
19:00 +27°C° 0 mm 2 m/s 756 mmHg 79%
20:00 +26°C° 0 mm 1 m/s 757 mmHg 83%
21:00 +25°C° 0 mm 1 m/s 757 mmHg 85%
22:00 +25°C° 0 mm 1 m/s 757 mmHg 87%
23:00 +24°C° 0 mm 1 m/s 757 mmHg 89%

20 Janeiro, Quarta-feira

Tempo Temperatura Precipitação Vento Pressão Humidade
00:00 +24°C° 0 mm 1 m/s 757 mmHg 89%
01:00 +24°C° 0 mm 1 m/s 757 mmHg 89%
02:00 +24°C° 0 mm 1 m/s 756 mmHg 90%
03:00 +24°C° 0 mm 1 m/s 757 mmHg 90%
04:00 +23°C° 0 mm 2 m/s 757 mmHg 89%
05:00 +23°C° 0 mm 2 m/s 757 mmHg 89%
06:00 +24°C° 0 mm 2 m/s 758 mmHg 84%
07:00 +25°C° 0 mm 2 m/s 758 mmHg 80%
08:00 +26°C° 0 mm 2 m/s 759 mmHg 75%
09:00 +29°C° 0 mm 2 m/s 759 mmHg 67%
10:00 +31°C° 0 mm 1 m/s 759 mmHg 59%
11:00 +32°C° 0 mm 0 m/s 759 mmHg 51%
12:00 +33°C° 0 mm 1 m/s 758 mmHg 52%
13:00 +34°C° 0 mm 2 m/s 757 mmHg 52%
14:00 +33°C° 0 mm 3 m/s 757 mmHg 53%
15:00 +31°C° 0 mm 3 m/s 756 mmHg 58%
16:00 +30°C° 0 mm 3 m/s 756 mmHg 64%
17:00 +29°C° 0 mm 3 m/s 756 mmHg 69%
18:00 +28°C° 0 mm 3 m/s 757 mmHg 73%
19:00 +27°C° 0 mm 2 m/s 758 mmHg 76%
20:00 +26°C° 0 mm 2 m/s 758 mmHg 79%
21:00 +26°C° 0 mm 2 m/s 758 mmHg 80%
22:00 +25°C° 0 mm 2 m/s 758 mmHg 82%
23:00 +25°C° 0 mm 2 m/s 758 mmHg 83%

21 Janeiro, Quinta-feira

Tempo Temperatura Precipitação Vento Pressão Humidade
00:00 +25°C° 0 mm 2 m/s 758 mmHg 83%
01:00 +25°C° 0 mm 2 m/s 757 mmHg 83%
02:00 +24°C° 0 mm 2 m/s 757 mmHg 82%
03:00 +24°C° 0 mm 2 m/s 757 mmHg 83%
04:00 +24°C° 0 mm 2 m/s 757 mmHg 83%
05:00 +24°C° 0 mm 2 m/s 757 mmHg 83%
06:00 +25°C° 0 mm 2 m/s 758 mmHg 79%
07:00 +26°C° 0 mm 2 m/s 758 mmHg 76%
08:00 +28°C° 0 mm 2 m/s 758 mmHg 72%
09:00 +30°C° 0 mm 2 m/s 758 mmHg 66%
10:00 +32°C° 0 mm 2 m/s 758 mmHg 60%
11:00 +34°C° 0 mm 2 m/s 758 mmHg 53%
12:00 +34°C° 0 mm 3 m/s 757 mmHg 56%
13:00 +34°C° 0 mm 3 m/s 757 mmHg 58%
14:00 +33°C° 0 mm 4 m/s 756 mmHg 61%
15:00 +31°C° 0 mm 3 m/s 756 mmHg 65%
16:00 +30°C° 0 mm 3 m/s 756 mmHg 69%
17:00 +30°C° 0 mm 3 m/s 756 mmHg 73%
18:00 +29°C° 0 mm 3 m/s 757 mmHg 77%
19:00 +28°C° 0 mm 2 m/s 757 mmHg 81%
20:00 +27°C° 0 mm 2 m/s 758 mmHg 85%
21:00 +27°C° 0 mm 2 m/s 758 mmHg 86%
22:00 +26°C° 0 mm 2 m/s 758 mmHg 88%
23:00 +26°C° 0 mm 2 m/s 758 mmHg 89%
Mostrar mais

Necessitamos do seu Consentimento

A Meteoprog e os seus Fornecedores de Serviços podem armazenar e aceder a dados pessoais como cookies, identificadores do dispositivo ou outras tecnologias semelhantes existentes no seu dispositivo e processar estes dados para personalizar conteúdos e anúncios, assim como funcionalidades nas redes sociais e análise de tráfego.

  • Armazenar e/ou aceder a informações no seu dispositivo

    Os cookies, identificadores do dispositivo ou outras informações podem ser armazenados ou acedidos no seu dispositivo, para os fins acima indicados.

  • Anúncios e conteúdos personalizados, medição de anúncios e conteúdos, dados sobre o público-alvo e desenvolvimento de produtos

    Os anúncios e os conteúdos podem ser personalizados com base num perfil. Podem ser adicionados dados adicionais para uma maior personalização dos anúncios e dos conteúdos. A eficácia dos anúncios e dos conteúdos pode ser medida. Podem ser obtidas informações sobre o público que visualizou os anúncios e os conteúdos. Estes dados podem ser usados para desenvolver ou melhorar sistemas, softwares ou a experiência do utilizador.

Ao clicar em "Eu concordo”, permitirá o uso de cookies, identificadores do dispositivo e web beacons mencionados ou outras tecnologias semelhantes. As configurações do navegador do seu dispositivo podem ser alteradas.

Para certos fins, podem ser invocados interesses legítimos ao invés de consentimento. Pode ler mais informação sobre este assunto na nossa Política de Privacidade e Cookies.